Location: Balsareny
(41.8670°N, 1.8830°E)
Time: 19:44:47
(UTC+02:00)

Tiangong - Pass Details

Date: 24 June 2021
Orbit: 374 x 386 km, 41.5° (Epoch: 25 July)

Event Time Altitude Azimuth Distance (km) Brightness Sun altitude
Exits shadow 05:27:58 - 266° (W) 1,618 3.7 -8.3°
Reaches altitude 10° 05:28:32 10° 266° (W) 1,386 3.4 -8.2°
Maximum altitude 05:31:39 85° 180° (S) 384 1.0 -7.7°
Drops below altitude 10° 05:34:48 10° 90° (E) 1,396 4.7 -7.3°
Sets 05:36:53 0° 89° (E) 2,251 5.8 -7.0°
